Find Starlink 30210

NORAD ID: 57292 Int'l Des: 2023-096 Owner: SPXS Country: US Constellation: starlink decayed
LEOCIRCULAR
Vis

Historical Track — Mar 7, 2026

Loading 3D Globe...

About Starlink 30210

Description loading...

Altitude History

Loading altitude history...

Two-Line Element Set

1 57292U 23096C 26065.27296031 .01137375 75761-3 12791-2 0 9992
2 57292 42.9612 156.8410 0022508 18.6298 14.7713 16.08023750147969
Epoch: Mar 6, 2026 • Age: 950 hours

Current Status

Position data unavailable
Launch Date Jul 10, 2023
Age 2.7 years
Decay Date Mar 7, 2026
Type internet

Technical Details

Classification Payload
Mass 730.00 kg
Dry Mass 700.00 kg
Total Mass 730.00 kg
Length 0.30 m
Diameter 4.10 m
Span 29.00 m
Shape Box + pan
Manufacturer SPXS
Bus Type Starlink V2M
Phase Status Unknown Transfer Status
Owner/State SPXS/US

Most Searched